EW7644 Weather Reports


time (UTC)temp
F
wind
direction
speed
knots
gust
knots
rain 1hr
in
rain 24hr
in
rain mn
in
humidity
%
barometer
mb
20260502161517 77 10 12.2 19.1 0.00 0.00 0.00 1 1011.5
20260502151510 72 27 13.0 19.1 0.00 0.00 0.00 3 1011.1
20260502123013 66 15 10.4 16.5 0.00 0.00 0.00 6 1009.9
20260502121511 66 36 8.7 13.9 0.00 0.00 0.00 6 1009.9
20260502114519 67 22 11.3 18.2 0.00 0.00 0.00 6 1009.8
20260502113010 67 23 11.3 17.4 0.00 0.00 0.00 5 1009.8
20260502111506 68 22 11.3 18.2 0.00 0.00 0.00 5 1009.9
20260502110021 67 19 9.6 15.6 0.00 0.00 0.00 6 1009.7
20260502104511 67 41 9.6 14.8 0.00 0.00 0.00 6 1009.7
20260502103023 68 22 11.3 16.5 0.00 0.00 0.00 5 1009.8
20260502101514 68 19 10.4 16.5 0.00 0.00 0.00 5 1009.9
20260502091516 67 41 9.6 12.2 0.00 0.00 0.00 4 1009.9
20260502071510 65 44 7.8 10.4 0.00 0.00 0.00 2 1010.2
20260502070037 65 45 6.1 9.6 0.00 0.00 0.00 2 1010.2
20260502064513 64 30 4.3 8.7 0.00 0.00 0.00 2 1010.2
20260502063003 65 43 5.2 7.8 0.00 0.00 0.00 2 1010.1
20260502061517 66 38 6.1 8.7 0.00 0.00 0.00 2 1010.0
20260502060027 66 55 5.2 9.6 0.00 0.00 0.00 2 1009.7
20260502054538 67 42 5.2 8.7 0.00 0.00 0.00 1 1009.7
20260502053018 68 33 6.1 10.4 0.00 0.00 0.00 1 1009.7
20260502051512 70 35 4.3 7.8 0.00 0.00 0.00 1 1009.6
20260502050015 73 349 6.1 9.6 0.00 0.00 0.00 1 1009.3
20260502044518 74 355 5.2 11.3 0.00 0.00 0.00 1 1009.3
20260502043010 74 327 5.2 10.4 0.00 0.00 0.00 1 1009.2
20260502041520 74 315 3.5 11.3 0.00 0.00 0.00 1 1008.9
20260502040039 74 336 3.5 10.4 0.00 0.00 0.00 1 1008.8
20260502034510 74 319 6.1 10.4 0.00 0.00 0.00 1 1008.6
20260502033028 75 317 5.2 11.3 0.00 0.00 0.00 1 1008.3
20260502031514 75 355 6.1 12.2 0.00 0.00 0.00 1 1008.0
20260502030009 75 325 3.5 9.6 0.00 0.00 0.00 1 1007.8
20260502024521 76 318 9.6 13.0 0.00 0.00 0.00 1 1007.7
20260502023027 77 326 6.1 14.8 0.00 0.00 0.00 1 1007.6
20260502021521 77 314 7.8 12.2 0.00 0.00 0.00 1 1007.5
20260502020019 78 319 9.6 14.8 0.00 0.00 0.00 1 1007.3
20260502014510 79 34 6.1 12.2 0.00 0.00 0.00 1 1007.1
20260502013022 80 333 7.8 13.0 0.00 0.00 0.00 1 1007.2
20260502011514 80 336 9.6 13.9 0.00 0.00 0.00 1 1007.0
20260502010009 82 306 9.6 15.6 0.00 0.00 0.00 1 1007.1
20260502004521 82 317 10.4 15.6 0.00 0.00 0.00 1 1007.2
20260502003013 82 333 12.2 20.0 0.00 0.00 0.00 1 1007.2
20260502001510 83 294 7.8 16.5 0.00 0.00 0.00 1 1007.1
20260502000032 83 281 8.7 15.6 0.00 0.00 0.00 1 1007.1
20260501234517 83 297 7.8 13.9 0.00 0.00 0.00 1 1007.2
20260501233009 83 314 8.7 18.2 0.00 0.00 0.00 1 1007.0
20260501231527 83 281 7.0 17.4 0.00 0.00 0.00 1 1006.9
20260501230031 83 292 8.7 16.5 0.00 0.00 0.00 1 1006.9
20260501224508 83 281 8.7 15.6 0.00 0.00 0.00 1 1007.1
20260501223022 84 313 10.4 17.4 0.00 0.00 0.00 1 1007.1
20260501221515 84 296 9.6 17.4 0.00 0.00 0.00 1 1007.2
20260501220009 84 304 7.0 19.1 0.00 0.00 0.00 1 1007.4
20260501214521 83 281 4.3 16.5 0.00 0.00 0.00 1 1007.5
20260501213016 84 321 8.7 15.6 0.00 0.00 0.00 1 1007.6
20260501211508 84 289 10.4 21.7 0.00 0.00 0.00 1 1007.9
20260501210018 83 265 7.0 15.6 0.00 0.00 0.00 1 1007.9
20260501204512 83 318 7.8 14.8 0.00 0.00 0.00 1 1008.1
20260501203018 83 277 6.1 16.5 0.00 0.00 0.00 1 1008.2
20260501201514 83 292 7.0 13.9 0.00 0.00 0.00 1 1008.2
20260501200007 82 284 6.1 13.0 0.00 0.00 0.00 1 1008.2
20260501194522 82 315 5.2 12.2 0.00 0.00 0.00 1 1008.4
20260501193011 82 273 2.6 13.9 0.00 0.00 0.00 1 1008.5
20260501191521 82 322 7.0 13.9 0.00 0.00 0.00 1 1008.6
20260501190015 82 328 9.6 14.8 0.00 0.00 0.00 1 1008.8
20260501184507 85 51 4.3 13.0 0.00 0.00 0.00 1 1008.9
20260501183019 82 44 3.5 11.3 0.00 0.00 0.00 1 1009.1
20260501181516 82 33 9.6 14.8 0.00 0.00 0.00 1 1009.3
20260501180023 81 32 5.2 13.0 0.00 0.00 0.00 1 1009.3
20260501174515 80 5 6.1 12.2 0.00 0.00 0.00 1 1009.3
20260501173016 80 13 10.4 15.6 0.00 0.00 0.00 1 1009.4
20260501171524 78 306 7.8 11.3 0.00 0.00 0.00 1 1009.5
20260501170011 77 17 7.0 13.0 0.00 0.00 0.00 1 1009.6
20260501164506 76 316 8.7 13.9 0.00 0.00 0.00 2 1009.6
20260501163019 76 30 9.6 13.9 0.00 0.00 0.00 2 1009.6